Location: Unspecified
(0.0000°N, 0.0000°E)
Time: 00:12:35
(UTC+00:00)

Envisat - Pass Details

Date: 20 January 2020
Orbit: 764 x 766 km, 98.1° (Epoch: 13 August)

Event Time Altitude Azimuth Distance (km) Brightness Sun altitude
Rises 18:40:18 0° 180° (S) 3,227 6.5 -6.9°
Reaches altitude 10° 18:42:42 10° 186° (S) 2,299 5.8 -7.4°
Maximum altitude 18:47:31 46° 258° (WSW) 1,023 4.3 -8.6°
Drops below altitude 10° 18:52:20 10° 330° (NNW) 2,290 5.6 -9.7°
Sets 18:54:43 0° 337° (NNW) 3,213 6.3 -10.3°
